Weather in Gumuldur

Turkey     38°03′20″N   27°02′34″E
temp.,
°C
wind,
m/s
gust,
m/s
humid.,
%
clouds,
%
prec.,
mm/h
press.,
hPa
HPBL,
m
20 january, thu
thu2000:00+3ne32480 0.0 1031474
03:00+3ne32500 0.0 1030385
06:00+2ene32520 0.0 1029363
09:00+2ene32520 0.0 1029332
12:00+5ese22410 0.0 1029452
15:00+7se444131 0.0 1027387
18:00+9se564984 0.0 1025569
21:00+9se6661100 0.0 1025639
21 january, fri
fri2100:00+8ese6767100 0.1 1024522
03:00+7ese7884100 1.6 1023424
06:00+9ese678095 0.8 1021357
09:00+9ese668290 2.0 1021288
12:00+10ese778262 1.2 1021416
15:00+10ese5588100 5.4 1019357
18:00+12se4680100 3.9 1018556
21:00+13s577797 8.3 1017702
22 january, sat
sat2200:00+13sw5879100 5.5 1016827
03:00+13wsw8974100 9.5 1014932
06:00+12wnw5778100 1.3 1013719
09:00+12w6774100 2.1 10121144
12:00+7nnw7888100 3.6 1013359
15:00+5n458498 4.8 1013619
18:00+6nnw567033 0.0 1014828
21:00+4n686216 0.0 1015770
23 january, sun
sun2300:00+2nne57603 0.0 1016498
03:00+2n696146 0.0 1018755
06:00+2nne69534 0.0 1019999
09:00+1nne35555 0.0 1021922
12:00+3nne354541 0.0 10221418
15:00+4n564142 0.0 10212062
18:00+4nne78464 0.0 10221679
21:00+2nne57512 0.0 1024942
24 january, mon
mon2400:00+2ne34500 0.0 1025578
03:00+1ne33520 0.0 1024464
06:00+1ne33520 0.0 1024421
09:00+1ene335492 0.0 1024455
12:00+3ese3341100 0.0 1025727
15:00+5e4438100 0.0 10221050
18:00+4ene4548100 0.3 10221157
21:00+2ne6668100 0.3 1023425